Portada
METAR-TAF:

METAR-TAF

Aeroports :

Riberalta, Bolívia

latitud: 11-00S, longitud: 066-07W, altitud: 141 m

Observació

L'informe es va fer fa 34 minuts, a les 20:00 UTC
Vent calma
Temperatura 27°C
Humitat 79%
Pressió 1009 hPa
Visibilitat 10 km o més
Cel ennuvolat a una alçada de 1500 ft
Cel ennuvolat a una alçada de 8000 ft

METAR: SLRI 152000Z 00000KT 9999 BKN015 BKN080 27/23 Q1009

Hora: 16:34 (20:34 UTC)


TAF: manca

Observacions i pronòstics meteorològics de més de 4000 aeroports (METAR i TAF).

Les estacions disponibles són els punts grocs i vermells al mapa.

Posi el ratolí al punt desitjat per veure el nom de l'estació.

Feu clic per veure les observacions i els pronòstics meteorològics.

Per canviar el mapa: feu clic els botons verds amb una creu de color negre per apropar; al botó verd amb un guió per allunyar la imatge; o en les fletxes verdes per a mapes adjacents.


METAR-TAF: